Location: Unspecified
(0.0000°N, 0.0000°E)
Time: 12:18:35
(UTC+00:00)

Envisat - Pass Details

Date: 04 December 2019
Orbit: 764 x 766 km, 98.1° (Epoch: 11 December)

Event Time Altitude Azimuth Distance (km) Brightness Sun altitude
Rises 19:26:06 0° 200° (SSW) 3,231 6.9 -22.1°
Reaches altitude 10° 19:29:19 10° 222° (SW) 2,301 6.4 -22.8°
Maximum altitude 19:32:15 16° 257° (WSW) 1,939 6.0 -23.5°
Drops below altitude 10° 19:35:11 10° 293° (WNW) 2,295 6.0 -24.1°
Sets 19:38:24 0° 315° (NW) 3,217 6.5 -24.9°
